This is the latest recevied weather packets stored in our database for station/object F5ZQC-13. If no packets are shown the sender has not sent any weather packets the latest 10 day(s).
| Time | Temp. | Humidity | Pressure | Rain* | Wind** | Luminosity | Snow |
|---|---|---|---|---|---|---|---|
| 1778221500 | 19.44° C | 36% | 1009.4 hPa | 0 mm | - | - | - |
| 1778221378 | 19.44° C | 37% | 1009.4 hPa | 0 mm | - | - | - |
| 1778221269 | 19.44° C | 38% | 1009.3 hPa | 0 mm | - | - | - |
| 1778220890 | 18.33° C | 39% | 1009.4 hPa | 0 mm | - | - | - |
| 1778220645 | 18.33° C | 39% | 1009.4 hPa | 0 mm | - | - | - |
| 1778220523 | 17.78° C | 39% | 1009.4 hPa | 0 mm | - | - | - |
| 1778220462 | 17.22° C | 40% | 1009.2 hPa | 0 mm | - | - | - |
| 1778220279 | 17.22° C | 40% | 1009.2 hPa | 0 mm | - | - | - |
| 1778220156 | 17.22° C | 41% | 1009.3 hPa | 0 mm | - | - | - |
| 1778220034 | 16.67° C | 41% | 1009.2 hPa | 0 mm | - | - | - |
| 1778219788 | 16.11° C | 40% | 1009.2 hPa | 0 mm | - | - | - |
| 1778219544 | 15.56° C | 39% | 1009.3 hPa | 0 mm | - | - | - |
| 1778219422 | 15.56° C | 40% | 1009.3 hPa | 0 mm | - | - | - |
| 1778218808 | 14.44° C | 42% | 1009 hPa | 0 mm | - | - | - |
| 1778218746 | 14.44° C | 42% | 1009.1 hPa | 0 mm | - | - | - |
| 1778218669 | 14.44° C | 42% | 1009.1 hPa | 0 mm | - | - | - |
| 1778218426 | 13.89° C | 43% | 1009 hPa | 0 mm | - | - | - |
| 1778218303 | 13.89° C | 43% | 1009.1 hPa | 0 mm | - | - | - |
| 1778218212 | 13.89° C | 43% | 1009.1 hPa | 0 mm | - | - | - |
| 1778218180 | 13.89° C | 43% | 1009.1 hPa | 0 mm | - | - | - |
| 1778217767 | 13.33° C | 43% | 1009 hPa | 0 mm | - | - | - |
| 1778217521 | 12.78° C | 43% | 1009 hPa | 0 mm | - | - | - |
| 1778217156 | 12.78° C | 42% | 1009 hPa | 0 mm | - | - | - |
| 1778217032 | 12.78° C | 42% | 1008.9 hPa | 0 mm | - | - | - |
| 1778216788 | 12.22° C | 42% | 1009 hPa | 0 mm | - | - | - |
* Rain since midnight (hover to see other rain measurements)
** Current wind speed in m/s (hover to see current wind gust speed)